Lemur-2 Wilson

operational
NORAD ID: 62694 Int'l Des: 2025-009 Owner: SPIRE Country: US Constellation: spire
LEOCIRCULARRETROGRADESSO

关于 Lemur-2 Wilson

正在加载描述...

实时位置

正在加载3D地球...

即将过境

高度历史

Altitude vs Time

uPlot chart will show altitude changes over time

两行轨道根数

1 62694U 25009CP 26062.13730685 .00002893 00000-0 27225-3 0 9995
2 62694 97.7086 142.4818 0003913 50.1780 309.9784 14.94630166 61514
Epoch: Mar 3, 2026 • Age: 28 hours

当前状态

高度 599.1 km
速度 7.56 km/s
星下点 -34.23°S, 91.02°E
发射日期 Jan 14, 2025
运行时间 1.1 years
类型 other

技术详情

分类 Payload
质量 7.60 kg
干质量 7.60 kg
总质量 7.60 kg
长度 0.30 m
直径 0.10 m
跨度 1.00 m
形状 Box+ 2 pan
制造商 SPIREG
平台类型 Cubesat 3U
阶段状态 In Orbit
所有者/国家 SPIRE/US

大型星座

Loading constellations...